• In Austria
  • List of Countries
  • For 7 days
  • Water Temperature
  • Satellite Maps
  • Weather Map
  • News
  • Weather Widgets
  • user-avatar
    Login

    Hourly Weather Krobielewo

    Today, 19 September, Wednesday

    Time Temperature Precipitation Wind Pressure Humidity
    00:00 +20°C° 0 mm 2 mps 759 mmHg 70%
    01:00 +20°C° 0 mm 2 mps 759 mmHg 72%
    02:00 +19°C° 0 mm 2 mps 759 mmHg 74%
    03:00 +19°C° 0 mm 2 mps 759 mmHg 75%
    04:00 +18°C° 0 mm 2 mps 759 mmHg 77%
    05:00 +19°C° 0 mm 2 mps 760 mmHg 77%
    06:00 +19°C° 0 mm 2 mps 760 mmHg 76%
    07:00 +20°C° 0 mm 1 mps 760 mmHg 75%
    08:00 +22°C° 0.1 mm 1 mps 760 mmHg 69%
    09:00 +24°C° 0.1 mm 2 mps 760 mmHg 63%
    10:00 +25°C° 0.1 mm 2 mps 761 mmHg 57%
    11:00 +27°C° 0 mm 2 mps 761 mmHg 53%
    12:00 +28°C° 0 mm 2 mps 761 mmHg 48%
    13:00 +29°C° 0 mm 2 mps 761 mmHg 44%
    14:00 +29°C° 0 mm 2 mps 760 mmHg 44%
    15:00 +30°C° 0 mm 2 mps 760 mmHg 44%
    16:00 +30°C° 0 mm 1 mps 760 mmHg 44%
    17:00 +28°C° 0 mm 1 mps 760 mmHg 49%
    18:00 +26°C° 0 mm 1 mps 760 mmHg 54%
    19:00 +24°C° 0 mm 1 mps 760 mmHg 59%
    20:00 +24°C° 0 mm 1 mps 760 mmHg 62%
    21:00 +23°C° 0 mm 2 mps 760 mmHg 64%
    22:00 +23°C° 0 mm 2 mps 760 mmHg 66%
    23:00 +21°C° 0 mm 2 mps 760 mmHg 68%

    Tomorrow, 20 September, Thursday

    Time Temperature Precipitation Wind Pressure Humidity
    00:00 +21°C° 0 mm 2 mps 760 mmHg 70%
    01:00 +21°C° 0 mm 2 mps 760 mmHg 72%
    02:00 +20°C° 0.1 mm 2 mps 760 mmHg 75%
    03:00 +20°C° 0.1 mm 2 mps 760 mmHg 77%
    04:00 +19°C° 0.1 mm 2 mps 760 mmHg 80%
    05:00 +19°C° 0.1 mm 2 mps 760 mmHg 80%
    06:00 +20°C° 0.1 mm 2 mps 761 mmHg 81%
    07:00 +20°C° 0.1 mm 2 mps 761 mmHg 81%
    08:00 +23°C° 0 mm 2 mps 761 mmHg 74%
    09:00 +24°C° 0 mm 2 mps 761 mmHg 67%
    10:00 +26°C° 0 mm 2 mps 761 mmHg 59%
    11:00 +27°C° 0 mm 3 mps 761 mmHg 55%
    12:00 +28°C° 0 mm 3 mps 761 mmHg 51%
    13:00 +29°C° 0 mm 3 mps 760 mmHg 47%
    14:00 +29°C° 0 mm 3 mps 760 mmHg 47%
    15:00 +29°C° 0 mm 3 mps 760 mmHg 46%
    16:00 +29°C° 0 mm 3 mps 760 mmHg 45%
    17:00 +27°C° 0 mm 2 mps 760 mmHg 50%
    18:00 +25°C° 0 mm 2 mps 759 mmHg 55%
    19:00 +23°C° 0 mm 1 mps 759 mmHg 60%
    20:00 +23°C° 0 mm 1 mps 759 mmHg 61%
    21:00 +22°C° 0 mm 1 mps 759 mmHg 62%
    22:00 +21°C° 0 mm 2 mps 759 mmHg 64%
    23:00 +21°C° 0 mm 2 mps 759 mmHg 65%

    Day after tomorrow, 21 September, Friday

    Time Temperature Precipitation Wind Pressure Humidity
    00:00 +21°C° 0 mm 2 mps 759 mmHg 66%
    01:00 +20°C° 0 mm 2 mps 758 mmHg 67%
    02:00 +20°C° 0 mm 3 mps 758 mmHg 69%
    03:00 +20°C° 0 mm 3 mps 758 mmHg 71%
    04:00 +20°C° 0 mm 3 mps 757 mmHg 73%
    05:00 +20°C° 0 mm 3 mps 757 mmHg 72%
    06:00 +20°C° 0 mm 3 mps 757 mmHg 71%
    07:00 +21°C° 0 mm 4 mps 756 mmHg 70%
    08:00 +23°C° 0 mm 4 mps 756 mmHg 62%
    09:00 +26°C° 0 mm 5 mps 755 mmHg 54%
    10:00 +28°C° 0 mm 6 mps 755 mmHg 46%
    11:00 +29°C° 0 mm 6 mps 754 mmHg 42%
    12:00 +30°C° 0 mm 6 mps 753 mmHg 38%
    13:00 +32°C° 0 mm 7 mps 753 mmHg 35%
    14:00 +32°C° 0 mm 6 mps 752 mmHg 36%
    15:00 +30°C° 0 mm 6 mps 751 mmHg 37%
    16:00 +30°C° 0 mm 5 mps 750 mmHg 38%
    17:00 +29°C° 0 mm 5 mps 750 mmHg 41%
    18:00 +28°C° 0 mm 5 mps 750 mmHg 44%
    19:00 +26°C° 0 mm 5 mps 750 mmHg 48%
    20:00 +23°C° 0.8 mm 6 mps 750 mmHg 57%
    21:00 +20°C° 0.8 mm 7 mps 751 mmHg 67%
    22:00 +16°C° 0.8 mm 9 mps 752 mmHg 76%
    23:00 +15°C° 1.7 mm 8 mps 753 mmHg 77%

    22 September, Saturday

    Time Temperature Precipitation Wind Pressure Humidity
    00:00 +12°C° 1.7 mm 7 mps 754 mmHg 79%
    01:00 +11°C° 1.7 mm 6 mps 755 mmHg 80%
    02:00 +11°C° 0 mm 6 mps 756 mmHg 77%
    03:00 +11°C° 0 mm 6 mps 756 mmHg 74%
    04:00 +10°C° 0 mm 5 mps 757 mmHg 72%
    05:00 +10°C° 0 mm 6 mps 757 mmHg 70%
    06:00 +10°C° 0 mm 6 mps 758 mmHg 69%
    07:00 +10°C° 0 mm 7 mps 758 mmHg 68%
    08:00 +11°C° 0 mm 7 mps 758 mmHg 65%
    09:00 +12°C° 0 mm 7 mps 759 mmHg 62%
    10:00 +14°C° 0 mm 7 mps 759 mmHg 60%
    11:00 +15°C° 0.1 mm 7 mps 759 mmHg 56%
    12:00 +16°C° 0.1 mm 7 mps 759 mmHg 52%
    13:00 +16°C° 0.1 mm 8 mps 759 mmHg 48%
    14:00 +16°C° 0.1 mm 7 mps 759 mmHg 48%
    15:00 +16°C° 0.1 mm 7 mps 759 mmHg 49%
    16:00 +16°C° 0.1 mm 7 mps 760 mmHg 49%
    17:00 +14°C° 0.1 mm 6 mps 760 mmHg 53%
    18:00 +13°C° 0.1 mm 5 mps 760 mmHg 57%
    19:00 +12°C° 0.1 mm 4 mps 760 mmHg 61%
    20:00 +12°C° 0 mm 4 mps 760 mmHg 62%
    21:00 +12°C° 0 mm 4 mps 761 mmHg 64%
    22:00 +11°C° 0 mm 4 mps 761 mmHg 65%
    23:00 +11°C° 0 mm 4 mps 761 mmHg 67%

    23 September, Sunday

    Time Temperature Precipitation Wind Pressure Humidity
    00:00 +10°C° 0 mm 4 mps 761 mmHg 68%
    01:00 +10°C° 0 mm 4 mps 761 mmHg 70%
    02:00 +10°C° 0 mm 3 mps 761 mmHg 72%
    03:00 +9°C° 0 mm 3 mps 761 mmHg 74%
    04:00 +9°C° 0 mm 3 mps 761 mmHg 76%
    05:00 +9°C° 0 mm 3 mps 760 mmHg 75%
    06:00 +9°C° 0 mm 3 mps 760 mmHg 75%
    07:00 +9°C° 0 mm 3 mps 760 mmHg 74%
    08:00 +11°C° 0 mm 3 mps 760 mmHg 67%
    09:00 +12°C° 0 mm 3 mps 759 mmHg 60%
    10:00 +14°C° 0 mm 4 mps 759 mmHg 54%
    11:00 +14°C° 0 mm 4 mps 758 mmHg 53%
    12:00 +15°C° 0 mm 4 mps 757 mmHg 52%
    13:00 +15°C° 0 mm 4 mps 756 mmHg 51%
    14:00 +14°C° 0.2 mm 5 mps 755 mmHg 56%
    15:00 +14°C° 0.2 mm 5 mps 754 mmHg 60%
    16:00 +13°C° 0.2 mm 5 mps 753 mmHg 65%
    17:00 +11°C° 0.5 mm 6 mps 752 mmHg 69%
    18:00 +11°C° 0.5 mm 6 mps 750 mmHg 74%
    19:00 +11°C° 0.5 mm 6 mps 749 mmHg 78%
    20:00 +11°C° 1 mm 6 mps 748 mmHg 80%
    21:00 +11°C° 1 mm 7 mps 746 mmHg 82%
    22:00 +11°C° 1 mm 7 mps 745 mmHg 84%
    23:00 +11°C° 2.2 mm 7 mps 744 mmHg 85%

    24 September, Monday

    Time Temperature Precipitation Wind Pressure Humidity
    00:00 +12°C° 2.2 mm 7 mps 744 mmHg 86%
    01:00 +12°C° 2.2 mm 7 mps 743 mmHg 87%
    02:00 +13°C° 0.2 mm 6 mps 743 mmHg 84%
    03:00 +13°C° 0.2 mm 5 mps 742 mmHg 82%
    04:00 +12°C° 0.2 mm 5 mps 741 mmHg 80%
    05:00 +12°C° 0 mm 5 mps 741 mmHg 79%
    06:00 +12°C° 0 mm 5 mps 740 mmHg 78%
    07:00 +10°C° 0 mm 6 mps 740 mmHg 77%
    08:00 +11°C° 0.2 mm 6 mps 740 mmHg 78%
    09:00 +11°C° 0.2 mm 6 mps 740 mmHg 79%
    10:00 +13°C° 0.2 mm 6 mps 740 mmHg 81%
    11:00 +13°C° 0.3 mm 6 mps 741 mmHg 80%
    12:00 +13°C° 0.3 mm 6 mps 741 mmHg 80%
    13:00 +13°C° 0.3 mm 6 mps 741 mmHg 80%
    14:00 +12°C° 0.4 mm 5 mps 742 mmHg 81%
    15:00 +12°C° 0.4 mm 5 mps 742 mmHg 82%
    16:00 +12°C° 0.4 mm 5 mps 743 mmHg 84%
    17:00 +12°C° 0.5 mm 5 mps 743 mmHg 86%
    18:00 +10°C° 0.5 mm 5 mps 744 mmHg 88%
    19:00 +10°C° 0.5 mm 5 mps 745 mmHg 90%
    20:00 +10°C° 0.4 mm 5 mps 745 mmHg 90%
    21:00 +10°C° 0.4 mm 5 mps 746 mmHg 90%
    22:00 +10°C° 0.4 mm 6 mps 747 mmHg 90%
    23:00 +10°C° 0.8 mm 7 mps 748 mmHg 89%
    Show more